[[{"header":{"parameterUnit":"m.s-1","parameterCategory":1,"la1":30.2991,"la2":30.254,"lo1":-89.0895,"lo2":-89.0444,"dy":0.0017,"dx":0.0017,"nx":28,"ny":28,"refTime":"2025-04-14T03:00:00:Z","depth":0,"parameterNumber":2,"parameterNumberName":"U-component_of_WINDS"},"data":[0,0,0,0,0,0,0,0,0,0,0,0,0,0,0,0,0,0,0,0,0,0,0,0,0,0,0,0,0,0,0,0,0,0,0,0,0,0,0,0,0,0,0,0,0,0,0,0,0,0,0,0,0,0,0,0,0,0,0.6966,0.6966,0,0.6977,0.6977,0.6977,0.6987,0.6987,0.6987,0.6987,0.6998,0.6998,0.6998,0,0,0,0,0,0,0,0,0,0,0,0,0,0.6954,0.6954,0.6966,0.6966,0.6966,0.6977,0.6977,0.6977,0.6987,0.6987,0.6987,0.6987,0.6997,0.6998,0.6998,0,0,0,0,0,0,0,0,0,0,0,0,0,0.6961,0.6954,0.6966,0.6972,0.6973,0.6977,0.6977,0.6977,0.6987,0.6987,0.6987,0.6988,0.6997,0.6998,0.6998,0.6995,0,0,0.6999,0.6999,0,0,0,0,0,0,0,0,0.6961,0.6962,0.6971,0.6972,0.6973,0.6981,0.6976,0.6983,0.6987,0.6982,0.6987,0.6988,0.6992,0.6992,0.6994,0.6996,0.6996,0.6999,0.6999,0.6999,0.6999,0,0,0,0,0,0,0,0.696,0.6961,0.697,0.6971,0.6972,0.6975,0.6976,0.6978,0.6985,0.6982,0.6983,0.6984,0.6992,0.6994,0.6994,0.6997,0.6999,0.6999,0.6999,0.6999,0.6998,0.6998,0,0,0,0,0,0,0.6959,0.6961,0.697,0.697,0.6967,0.6975,0.6976,0.6978,0.6985,0.6987,0.6984,0.6985,0.6993,0.6994,0.6995,0.6993,0.6999,0.6999,0.6999,0.6998,0.6998,0.6998,0,0,0,0,0,0,0.6959,0.696,0.6969,0.6966,0.6967,0.6975,0.6977,0.6978,0.698,0.6987,0.6988,0.6984,0.6993,0.6994,0.6996,0.6993,0.6999,0.6999,0.6999,0.6998,0.6998,0.6989,0,0,0,0,0,0,0.6958,0.6959,0.6958,0.6966,0.6967,0.697,0.6977,0.6978,0.698,0.6981,0.6987,0.6989,0.6994,0.6995,0.6996,0.6994,0.7,0.6999,0.6999,0.6998,0.699,0.6989,0.6988,0,0,0,0,0,0.6958,0.6955,0.6958,0.6959,0.6966,0.697,0.6971,0.6977,0.698,0.6979,0.6984,0.6988,0.6994,0.6995,0.6996,0.6994,0.6999,0.6999,0.6998,0.699,0.6989,0.6988,0,0,0,0,0,0,0.6946,0.6956,0.696,0.6959,0.6964,0.6971,0.697,0.6975,0.6978,0.6979,0.6986,0.6988,0.6988,0.6991,0.6993,0.6993,0.6997,0.6997,0.6991,0.6989,0.6988,0.6987,0.7,0,0,0,0,0,0.6944,0.6946,0.6954,0.6953,0.6955,0.6963,0.6964,0.6969,0.6973,0.6975,0.698,0.6984,0.6987,0.6988,0.6991,0.6991,0.6992,0.699,0.6989,0.6988,0.6987,0.6988,0.6987,0.6997,0.6997,0.6997,0,0,0.6939,0.6944,0.6945,0.6951,0.6955,0.6957,0.6964,0.6965,0.6967,0.6975,0.6977,0.6981,0.6986,0.6986,0.6987,0.6989,0.6985,0.6988,0.6987,0.6987,0.6988,0.6987,0.6986,0.6997,0.6997,0.6997,0,0,0.693,0.6935,0.6934,0.6939,0.6945,0.695,0.695,0.6957,0.696,0.6962,0.6969,0.6971,0.6975,0.6979,0.6981,0.6976,0.698,0.6977,0.6972,0.6972,0.6971,0.6971,0.6969,0.6968,0.6976,0.6976,0.6976,0,0.6923,0.6926,0.6934,0.6935,0.6938,0.6946,0.6946,0.695,0.6957,0.6958,0.6961,0.6968,0.6972,0.6973,0.6972,0.6974,0.6975,0.6976,0.6971,0.697,0.697,0.6968,0.6968,0.6976,0.6976,0.6976,0.6976,0,0.6917,0.6919,0.6918,0.6925,0.6928,0.6929,0.6937,0.6938,0.6943,0.6948,0.6951,0.6956,0.6961,0.6962,0.6966,0.6964,0.6966,0.697,0.6974,0.6968,0.6967,0.6967,0.6975,0.6975,0.6976,0.6976,0,0,0.69,0.6912,0.6912,0.6915,0.6924,0.6925,0.6927,0.6932,0.6934,0.6939,0.694,0.6945,0.6949,0.6952,0.6957,0.6957,0.6953,0.6961,0.6961,0.696,0.6953,0.6949,0.6949,0.6957,0.6957,0.6957,0.6952,0,0.6892,0.6896,0.6903,0.6904,0.6907,0.6916,0.6917,0.6923,0.6928,0.6931,0.6937,0.694,0.6945,0.6947,0.6948,0.6954,0.6952,0.6954,0.6958,0.6958,0.6956,0.6948,0.6944,0.694,0.6952,0.6952,0.6952,0,0.6883,0.6889,0.689,0.6899,0.6901,0.6902,0.6908,0.6911,0.6917,0.6921,0.6925,0.6931,0.6934,0.6938,0.6942,0.6944,0.6946,0.6949,0.6949,0.6949,0.6954,0.6948,0.6938,0.6937,0.6951,0.6951,0.6951,0,0.6871,0.6878,0.688,0.6883,0.6894,0.6895,0.6899,0.6906,0.6909,0.6915,0.6917,0.6922,0.6925,0.6929,0.6937,0.6939,0.694,0.6945,0.6943,0.6943,0.6942,0.6942,0.6933,0.6944,0.6944,0.6944,0.6944,0,0.6861,0.6862,0.6875,0.6876,0.6877,0.6887,0.6888,0.6893,0.6899,0.6902,0.691,0.6913,0.6923,0.6926,0.6932,0.6935,0.6936,0.6939,0.6941,0.6938,0.6938,0.694,0.694,0.6944,0.6944,0.6944,0.6944,0,0.6847,0.6856,0.6859,0.6869,0.6872,0.6872,0.6882,0.6883,0.689,0.6893,0.6894,0.6904,0.6909,0.6917,0.6924,0.6929,0.693,0.6933,0.6928,0.6929,0.6927,0.6927,0.6918,0.6917,0.6929,0.6929,0.6929,0,0.684,0.6841,0.6852,0.6855,0.6859,0.6863,0.6867,0.6876,0.688,0.6888,0.6889,0.6895,0.69,0.6907,0.6915,0.6921,0.6924,0.692,0.6924,0.6922,0.6924,0.6923,0.6924,0.6919,0.6919,0.6919,0.6919,0,0.6827,0.6832,0.6836,0.6843,0.6847,0.6853,0.6859,0.686,0.6871,0.6875,0.688,0.6884,0.6892,0.6898,0.6905,0.691,0.6916,0.6917,0.6917,0.6914,0.6912,0.6913,0.6925,0.6917,0.6917,0.6917,0.6918,0.6918,0.6816,0.6817,0.6826,0.6831,0.6837,0.6843,0.6845,0.6853,0.6857,0.6865,0.6871,0.6876,0.6884,0.6894,0.6899,0.6904,0.6906,0.6906,0.6906,0.6906,0.6905,0.6912,0.6905,0.6905,0.6905,0.6905,0.6905,0,0.6803,0.6809,0.6814,0.6823,0.6827,0.6834,0.6841,0.6844,0.6849,0.6856,0.6862,0.6868,0.6875,0.6884,0.6891,0.6892,0.6895,0.6894,0.6894,0.6895,0.6902,0.6901,0.6891,0.6891,0.6891,0.6891,0.6891,0.6891,0.6796,0.68,0.6806,0.6812,0.6819,0.6824,0.6828,0.6834,0.684,0.6847,0.6852,0.6859,0.6867,0.6875,0.6881,0.6883,0.6885,0.6883,0.6886,0.6893,0.6894,0.6895,0.6895,0.6883,0.6883,0.6879,0.6879,0.6879]},{"header":{"parameterUnit":"m.s-1","parameterCategory":1,"la1":30.2991,"la2":30.254,"lo1":-89.0895,"lo2":-89.0444,"dy":0.0017,"dx":0.0017,"nx":28,"ny":28,"refTime":"2025-04-14T03:00:00:Z","depth":0,"parameterNumber":3,"parameterNumberName":"V-component_of_WINDS"},"data":[0,0,0,0,0,0,0,0,0,0,0,0,0,0,0,0,0,0,0,0,0,0,0,0,0,0,0,0,0,0,0,0,0,0,0,0,0,0,0,0,0,0,0,0,0,0,0,0,0,0,0,0,0,0,0,0,0,0,-5.4197,-5.4198,0,-5.4258,-5.4259,-5.4259,-5.4194,-5.4192,-5.4189,-5.4187,-5.4243,-5.4246,-5.425,0,0,0,0,0,0,0,0,0,0,0,0,0,-5.4019,-5.4023,-5.4197,-5.4198,-5.4199,-5.4258,-5.4259,-5.426,-5.4195,-5.4192,-5.4189,-5.4186,-5.4241,-5.4246,-5.425,0,0,0,0,0,0,0,0,0,0,0,0,0,-5.409,-5.4024,-5.4197,-5.4174,-5.4172,-5.4258,-5.4259,-5.426,-5.4195,-5.4192,-5.4188,-5.4184,-5.424,-5.4245,-5.4251,-5.4361,0,0,-5.4268,-5.4271,0,0,0,0,0,0,0,0,-5.4086,-5.4096,-5.4176,-5.4175,-5.4174,-5.4215,-5.4216,-5.4293,-5.4196,-5.4186,-5.4187,-5.4183,-5.4236,-5.4242,-5.4261,-5.4363,-5.4366,-5.4269,-5.4272,-5.4275,-5.4276,0,0,0,0,0,0,0,-5.4081,-5.4093,-5.4221,-5.4178,-5.4176,-5.4158,-5.4164,-5.4231,-5.4231,-5.4187,-5.4182,-5.4191,-5.4234,-5.4256,-5.4262,-5.4366,-5.4269,-5.4274,-5.4277,-5.4279,-5.4563,-5.4566,0,0,0,0,0,0,-5.408,-5.409,-5.4219,-5.4223,-5.412,-5.4165,-5.4171,-5.4205,-5.423,-5.4231,-5.4194,-5.4188,-5.4248,-5.4255,-5.4264,-5.4394,-5.4275,-5.428,-5.4283,-5.4558,-5.4563,-5.4568,0,0,0,0,0,0,-5.4076,-5.4092,-5.4217,-5.4155,-5.417,-5.4172,-5.4211,-5.4209,-5.423,-5.4236,-5.4235,-5.4216,-5.4245,-5.4256,-5.4338,-5.4395,-5.4283,-5.4288,-5.4554,-5.456,-5.4566,-5.4656,0,0,0,0,0,0,-5.4071,-5.4091,-5.4134,-5.4157,-5.4173,-5.4292,-5.4214,-5.4212,-5.4241,-5.4233,-5.4256,-5.4256,-5.4243,-5.433,-5.4343,-5.4401,-5.4292,-5.4548,-5.4556,-5.4564,-5.4648,-5.4665,-5.4679,0,0,0,0,0,-5.4065,-5.4155,-5.4136,-5.4152,-5.4227,-5.4295,-5.4304,-5.4289,-5.4246,-5.4288,-5.4292,-5.4255,-5.4387,-5.4339,-5.4353,-5.4414,-5.4545,-5.4554,-5.4563,-5.4641,-5.4661,-5.4679,0,0,0,0,0,0,-5.4135,-5.4157,-5.4137,-5.4237,-5.4265,-5.4284,-5.4337,-5.4311,-5.435,-5.4341,-5.4318,-5.4324,-5.4412,-5.4421,-5.4366,-5.4522,-5.4458,-5.4471,-5.4513,-5.4532,-5.4547,-5.4543,-5.4297,0,0,0,0,0,-5.4163,-5.4218,-5.4234,-5.4321,-5.4336,-5.4335,-5.4363,-5.435,-5.4377,-5.4387,-5.4397,-5.4423,-5.447,-5.4502,-5.4545,-5.465,-5.4653,-5.4698,-5.4714,-5.4727,-5.4737,-5.4794,-5.4814,-5.4598,-5.4598,-5.4598,0,0,-5.4219,-5.4238,-5.4274,-5.4335,-5.4355,-5.4412,-5.4344,-5.4406,-5.4447,-5.4396,-5.4475,-5.4484,-5.4511,-5.4605,-5.4647,-5.4615,-5.4798,-5.4738,-5.4748,-5.4752,-5.4806,-5.4826,-5.4844,-5.4605,-5.4603,-5.4602,0,0,-5.4351,-5.4372,-5.4447,-5.447,-5.4502,-5.4501,-5.4519,-5.4543,-5.4547,-5.4627,-5.459,-5.4638,-5.4719,-5.4741,-5.4763,-5.4906,-5.4874,-5.4921,-5.5001,-5.5057,-5.5074,-5.5089,-5.514,-5.5159,-5.4932,-5.4932,-5.4932,0,-5.4417,-5.4502,-5.4488,-5.4554,-5.4582,-5.4542,-5.4617,-5.4639,-5.4683,-5.4702,-5.4667,-5.477,-5.4786,-5.4885,-5.492,-5.4939,-5.4959,-5.4918,-5.5073,-5.5088,-5.5101,-5.515,-5.5169,-5.4938,-5.4937,-5.4936,-5.4936,0,-5.4581,-5.4641,-5.4698,-5.4746,-5.478,-5.485,-5.4845,-5.4881,-5.4866,-5.4868,-5.495,-5.4968,-5.5015,-5.5037,-5.5021,-5.5135,-5.5114,-5.5077,-5.5012,-5.5128,-5.5173,-5.5192,-5.4946,-5.4944,-5.4942,-5.4941,0,0,-5.4756,-5.4798,-5.4819,-5.4841,-5.4875,-5.492,-5.4989,-5.5038,-5.507,-5.5102,-5.5158,-5.523,-5.5196,-5.522,-5.5206,-5.5255,-5.5369,-5.5211,-5.5212,-5.524,-5.5495,-5.5524,-5.5546,-5.5349,-5.5352,-5.5355,-5.5493,0,-5.489,-5.5011,-5.5002,-5.5116,-5.5171,-5.5135,-5.5195,-5.5221,-5.5226,-5.5272,-5.5276,-5.5327,-5.5278,-5.5293,-5.534,-5.5345,-5.542,-5.5335,-5.5399,-5.5402,-5.5393,-5.5569,-5.5599,-5.5728,-5.5511,-5.5514,-5.5516,0,-5.506,-5.5103,-5.5224,-5.5252,-5.5274,-5.5329,-5.5374,-5.5419,-5.5449,-5.5448,-5.5478,-5.5457,-5.5524,-5.546,-5.5553,-5.5496,-5.5521,-5.5528,-5.5533,-5.5537,-5.5465,-5.5578,-5.5769,-5.5789,-5.5544,-5.5541,-5.5539,0,-5.5177,-5.5263,-5.5347,-5.5367,-5.5402,-5.5441,-5.5457,-5.5483,-5.5514,-5.5553,-5.5572,-5.5618,-5.5642,-5.5678,-5.5669,-5.5623,-5.5764,-5.5698,-5.5764,-5.5765,-5.5795,-5.5793,-5.5992,-5.5813,-5.5812,-5.5812,-5.5811,0,-5.5326,-5.5401,-5.54,-5.5452,-5.5535,-5.5523,-5.5605,-5.5616,-5.5641,-5.5693,-5.5663,-5.5712,-5.5698,-5.5746,-5.5739,-5.5817,-5.5828,-5.5829,-5.5826,-5.5831,-5.5831,-5.5847,-5.5838,-5.5817,-5.5816,-5.5815,-5.5814,0,-5.5469,-5.5471,-5.5561,-5.5588,-5.5597,-5.5657,-5.5679,-5.5727,-5.573,-5.5797,-5.5811,-5.5816,-5.5871,-5.5866,-5.5927,-5.5923,-5.602,-5.6006,-5.6011,-5.6008,-5.6074,-5.6068,-5.629,-5.6319,-5.6121,-5.6123,-5.6124,0,-5.5563,-5.5621,-5.5656,-5.569,-5.571,-5.5765,-5.5797,-5.5788,-5.5823,-5.5863,-5.5906,-5.5959,-5.6001,-5.6091,-5.6098,-5.6145,-5.6132,-5.6207,-5.6139,-5.6143,-5.6134,-5.613,-5.6136,-5.622,-5.6222,-5.6224,-5.6226,0,-5.5731,-5.5731,-5.578,-5.5831,-5.5872,-5.591,-5.5945,-5.5974,-5.5969,-5.6009,-5.6067,-5.61,-5.6165,-5.6218,-5.6263,-5.6277,-5.6251,-5.6248,-5.6265,-5.6271,-5.6271,-5.6272,-5.6047,-5.6242,-5.624,-5.6239,-5.6238,-5.6238,-5.5852,-5.5903,-5.5936,-5.5993,-5.6019,-5.6054,-5.6101,-5.6112,-5.6161,-5.6215,-5.6206,-5.6271,-5.63,-5.6359,-5.6378,-5.6428,-5.64,-5.6426,-5.6432,-5.6439,-5.6447,-5.6265,-5.6436,-5.6435,-5.6435,-5.6434,-5.6434,0,-5.6019,-5.604,-5.6092,-5.6144,-5.6189,-5.6164,-5.6202,-5.624,-5.6299,-5.633,-5.6373,-5.644,-5.6492,-5.6505,-5.6555,-5.6592,-5.6582,-5.6606,-5.6602,-5.6606,-5.6468,-5.6448,-5.6614,-5.6614,-5.6614,-5.6614,-5.6614,-5.6614,-5.611,-5.6195,-5.6199,-5.6296,-5.6315,-5.6381,-5.6406,-5.6437,-5.6462,-5.6539,-5.6584,-5.6593,-5.6617,-5.6669,-5.6715,-5.6717,-5.6737,-5.6766,-5.6763,-5.6634,-5.6616,-5.6598,-5.6579,-5.677,-5.6771,-5.6897,-5.6899,-5.6899]}]]